| time (UTC) | temp F | wind direction | speed MPH | gust MPH | rain 1hr in | rain 24hr in | rain mn in | humidity % | barometer mb |
| 20260901021928 | 88 | 106 | 1.0 | 1.0 | 0.00 | 0.00 | 0.00 | 45 | 1015.8 |
| 20260901021424 | 88 | 105 | 1.0 | 1.0 | 0.00 | 0.00 | 0.00 | 45 | 1015.8 |
| 20260901020919 | 89 | 107 | 2.0 | 2.0 | 0.00 | 0.00 | 0.00 | 44 | 1015.6 |
| 20260901020415 | 89 | 113 | 2.0 | 2.0 | 0.00 | 0.00 | 0.00 | 43 | 1015.8 |
| 20260901015913 | 89 | 118 | 1.0 | 2.0 | 0.00 | 0.00 | 0.00 | 42 | 1015.6 |
| 20260901015410 | 90 | 119 | 3.0 | 3.0 | 0.00 | 0.00 | 0.00 | 42 | 1015.8 |
| 20260901014909 | 90 | 117 | 2.0 | 2.0 | 0.00 | 0.00 | 0.00 | 41 | 1015.6 |
| 20260901014406 | 90 | 120 | 1.0 | 1.0 | 0.00 | 0.00 | 0.00 | 41 | 1015.5 |
| 20260901013901 | 91 | 123 | 2.0 | 2.0 | 0.00 | 0.00 | 0.00 | 40 | 1015.5 |
| 20260901013357 | 91 | 122 | 2.0 | 2.0 | 0.00 | 0.00 | 0.00 | 40 | 1015.5 |
| 20260901012852 | 91 | 107 | 3.0 | 5.0 | 0.00 | 0.00 | 0.00 | 39 | 1015.5 |
| 20260901012346 | 91 | 116 | 5.0 | 6.0 | 0.00 | 0.00 | 0.00 | 39 | 1015.5 |
| 20260901011842 | 91 | 120 | 2.0 | 2.0 | 0.00 | 0.00 | 0.00 | 39 | 1015.4 |
| 20260901011338 | 91 | 118 | 2.0 | 2.0 | 0.00 | 0.00 | 0.00 | 39 | 1015.4 |
| 20260901010837 | 92 | 112 | 2.0 | 2.0 | 0.00 | 0.00 | 0.00 | 39 | 1015.4 |
| 20260901010331 | 92 | 121 | 1.0 | 1.0 | 0.00 | 0.00 | 0.00 | 38 | 1015.4 |
| 20260901005830 | 92 | 119 | 2.0 | 3.0 | 0.00 | 0.00 | 0.00 | 38 | 1015.3 |
| 20260901005326 | 93 | 111 | 1.0 | 2.0 | 0.00 | 0.00 | 0.00 | 37 | 1015.1 |
| 20260901004820 | 93 | 111 | 1.0 | 2.0 | 0.00 | 0.00 | 0.00 | 37 | 1015.0 |
| 20260901004314 | 94 | 111 | 2.0 | 2.0 | 0.00 | 0.00 | 0.00 | 36 | 1015.2 |
| 20260901003808 | 94 | 114 | 2.0 | 2.0 | 0.00 | 0.00 | 0.00 | 36 | 1015.1 |
| 20260901003303 | 95 | 123 | 2.0 | 2.0 | 0.00 | 0.00 | 0.00 | 35 | 1015.4 |
| 20260901002802 | 95 | 116 | 3.0 | 3.0 | 0.00 | 0.00 | 0.00 | 34 | 1015.1 |
| 20260901002258 | 96 | 118 | 4.0 | 6.0 | 0.00 | 0.00 | 0.00 | 34 | 1015.2 |
| 20260901001753 | 96 | 166 | 4.0 | 5.0 | 0.00 | 0.00 | 0.00 | 34 | 1015.0 |
| 20260901001248 | 96 | 144 | 4.0 | 5.0 | 0.00 | 0.00 | 0.00 | 34 | 1015.1 |
| 20260901000737 | 97 | 163 | 6.0 | 7.0 | 0.00 | 0.00 | 0.00 | 33 | 1015.3 |
| 20260901000233 | 97 | 178 | 4.0 | 5.0 | 0.00 | 0.00 | 0.00 | 33 | 1015.2 |
| 20260831235731 | 97 | 163 | 5.0 | 7.0 | 0.00 | 0.00 | 0.00 | 33 | 1015.2 |
| 20260831235227 | 98 | 151 | 6.0 | 8.0 | 0.00 | 0.00 | 0.00 | 33 | 1015.1 |
| 20260831234722 | 98 | 126 | 2.0 | 2.0 | 0.00 | 0.00 | 0.00 | 32 | 1015.4 |
| 20260831234221 | 98 | 101 | 3.0 | 3.0 | 0.00 | 0.00 | 0.00 | 32 | 1015.2 |
| 20260831233711 | 98 | 94 | 4.0 | 6.0 | 0.00 | 0.00 | 0.00 | 32 | 1015.5 |
| 20260831233206 | 98 | 129 | 5.0 | 6.0 | 0.00 | 0.00 | 0.00 | 32 | 1015.1 |
| 20260831232700 | 98 | 160 | 7.0 | 9.0 | 0.00 | 0.00 | 0.00 | 32 | 1015.3 |
| 20260831232157 | 98 | 149 | 5.0 | 6.0 | 0.00 | 0.00 | 0.00 | 33 | 1015.2 |
| 20260831231653 | 98 | 130 | 2.0 | 2.0 | 0.00 | 0.00 | 0.00 | 33 | 1015.1 |
| 20260831231149 | 98 | 131 | 4.0 | 6.0 | 0.00 | 0.00 | 0.00 | 33 | 1015.1 |
| 20260831230643 | 99 | 135 | 5.0 | 7.0 | 0.00 | 0.00 | 0.00 | 32 | 1015.1 |
| 20260831230139 | 99 | 154 | 3.0 | 3.0 | 0.00 | 0.00 | 0.00 | 32 | 1015.2 |
| 20260831225638 | 99 | 155 | 2.0 | 3.0 | 0.00 | 0.00 | 0.00 | 33 | 1015.2 |
| 20260831225133 | 100 | 148 | 3.0 | 5.0 | 0.00 | 0.00 | 0.00 | 32 | 1015.2 |
| 20260831224629 | 100 | 171 | 3.0 | 5.0 | 0.00 | 0.00 | 0.00 | 31 | 1015.1 |
| 20260831224124 | 100 | 127 | 6.0 | 8.0 | 0.00 | 0.00 | 0.00 | 32 | 1015.2 |
| 20260831223619 | 99 | 126 | 3.0 | 3.0 | 0.00 | 0.00 | 0.00 | 32 | 1015.4 |
| 20260831223115 | 98 | 184 | 6.0 | 7.0 | 0.00 | 0.00 | 0.00 | 32 | 1015.4 |
| 20260831222611 | 99 | 136 | 9.0 | 10.0 | 0.00 | 0.00 | 0.00 | 31 | 1015.3 |
| 20260831222106 | 99 | 207 | 4.0 | 5.0 | 0.00 | 0.00 | 0.00 | 32 | 1015.4 |
| 20260831221602 | 100 | 216 | 4.0 | 5.0 | 0.00 | 0.00 | 0.00 | 31 | 1015.5 |
| 20260831221101 | 100 | 192 | 5.0 | 6.0 | 0.00 | 0.00 | 0.00 | 31 | 1015.5 |
| 20260831220556 | 100 | 114 | 3.0 | 3.0 | 0.00 | 0.00 | 0.00 | 32 | 1015.3 |
| 20260831220052 | 101 | 94 | 6.0 | 7.0 | 0.00 | 0.00 | 0.00 | 30 | 1015.4 |
| 20260831215548 | 100 | 181 | 4.0 | 5.0 | 0.00 | 0.00 | 0.00 | 31 | 1015.5 |
| 20260831215043 | 100 | 115 | 6.0 | 7.0 | 0.00 | 0.00 | 0.00 | 31 | 1015.4 |
| 20260831214541 | 100 | 108 | 5.0 | 7.0 | 0.00 | 0.00 | 0.00 | 31 | 1015.7 |
| 20260831214036 | 99 | 99 | 6.0 | 7.0 | 0.00 | 0.00 | 0.00 | 29 | 1015.7 |
| 20260831213533 | 101 | 95 | 7.0 | 8.0 | 0.00 | 0.00 | 0.00 | 30 | 1015.6 |
| 20260831213027 | 100 | 95 | 5.0 | 6.0 | 0.00 | 0.00 | 0.00 | 31 | 1015.8 |
| 20260831212524 | 100 | 104 | 5.0 | 7.0 | 0.00 | 0.00 | 0.00 | 32 | 1015.7 |
| 20260831212019 | 101 | 88 | 7.0 | 11.0 | 0.00 | 0.00 | 0.00 | 32 | 1015.9 |
| 20260831211514 | 100 | 81 | 6.0 | 7.0 | 0.00 | 0.00 | 0.00 | 31 | 1015.9 |
| 20260831211013 | 100 | 103 | 5.0 | 7.0 | 0.00 | 0.00 | 0.00 | 31 | 1016.0 |
| 20260831210508 | 100 | 88 | 8.0 | 10.0 | 0.00 | 0.00 | 0.00 | 30 | 1016.1 |
| 20260831210003 | 100 | 93 | 10.0 | 10.0 | 0.00 | 0.00 | 0.00 | 30 | 1015.9 |
| 20260831205459 | 101 | 105 | 6.0 | 8.0 | 0.00 | 0.00 | 0.00 | 31 | 1016.1 |
| 20260831204954 | 101 | 101 | 7.0 | 9.0 | 0.00 | 0.00 | 0.00 | 30 | 1016.3 |
| 20260831204454 | 100 | 107 | 11.0 | 13.0 | 0.00 | 0.00 | 0.00 | 31 | 1016.1 |
| 20260831203953 | 100 | 57 | 9.0 | 11.0 | 0.00 | 0.00 | 0.00 | 31 | 1016.2 |
| 20260831203448 | 100 | 152 | 9.0 | 13.0 | 0.00 | 0.00 | 0.00 | 31 | 1016.5 |
| 20260831202945 | 102 | 165 | 9.0 | 10.0 | 0.00 | 0.00 | 0.00 | 28 | 1016.7 |
| 20260831202441 | 100 | 166 | 1.0 | 1.0 | 0.00 | 0.00 | 0.00 | 27 | 1016.6 |
| 20260831201940 | 101 | 134 | 8.0 | 10.0 | 0.00 | 0.00 | 0.00 | 27 | 1016.8 |
| 20260831201439 | 100 | 123 | 9.0 | 10.0 | 0.00 | 0.00 | 0.00 | 27 | 1016.6 |
| 20260831200935 | 101 | 286 | 3.0 | 3.0 | 0.00 | 0.00 | 0.00 | 25 | 1016.6 |
| 20260831200430 | 101 | 194 | 4.0 | 5.0 | 0.00 | 0.00 | 0.00 | 25 | 1016.8 |
| 20260831195925 | 102 | 133 | 6.0 | 7.0 | 0.00 | 0.00 | 0.00 | 23 | 1016.8 |
| 20260831195420 | 101 | 145 | 1.0 | 1.0 | 0.00 | 0.00 | 0.00 | 25 | 1017.1 |
| 20260831194915 | 102 | 123 | 6.0 | 8.0 | 0.00 | 0.00 | 0.00 | 25 | 1017.1 |
| 20260831194411 | 101 | 118 | 3.0 | 3.0 | 0.00 | 0.00 | 0.00 | 27 | 1017.0 |
| 20260831193910 | 101 | 105 | 5.0 | 6.0 | 0.00 | 0.00 | 0.00 | 26 | 1017.2 |
| 20260831193405 | 100 | 129 | 8.0 | 9.0 | 0.00 | 0.00 | 0.00 | 28 | 1017.4 |
| 20260831192901 | 99 | 122 | 7.0 | 11.0 | 0.00 | 0.00 | 0.00 | 30 | 1017.5 |
| 20260831192400 | 98 | 134 | 7.0 | 8.0 | 0.00 | 0.00 | 0.00 | 30 | 1017.5 |
| 20260831191856 | 100 | 90 | 10.0 | 13.0 | 0.00 | 0.00 | 0.00 | 29 | 1017.4 |
| 20260831191353 | 100 | 136 | 7.0 | 8.0 | 0.00 | 0.00 | 0.00 | 29 | 1017.5 |
| 20260831190849 | 100 | 144 | 10.0 | 11.0 | 0.00 | 0.00 | 0.00 | 29 | 1017.7 |
| 20260831190348 | 98 | 134 | 6.0 | 7.0 | 0.00 | 0.00 | 0.00 | 31 | 1017.5 |
| 20260831185847 | 99 | 169 | 7.0 | 8.0 | 0.00 | 0.00 | 0.00 | 31 | 1017.5 |
| 20260831185343 | 98 | 126 | 8.0 | 9.0 | 0.00 | 0.00 | 0.00 | 33 | 1017.7 |
| 20260831184842 | 99 | 193 | 3.0 | 5.0 | 0.00 | 0.00 | 0.00 | 34 | 1017.5 |
| 20260831184338 | 100 | 142 | 6.0 | 7.0 | 0.00 | 0.00 | 0.00 | 30 | 1017.7 |
| 20260831183833 | 100 | 123 | 7.0 | 9.0 | 0.00 | 0.00 | 0.00 | 29 | 1017.7 |
| 20260831183332 | 99 | 178 | 8.0 | 9.0 | 0.00 | 0.00 | 0.00 | 30 | 1017.6 |
| 20260831182831 | 97 | 199 | 6.0 | 7.0 | 0.00 | 0.00 | 0.00 | 35 | 1017.9 |
| 20260831182326 | 97 | 111 | 5.0 | 7.0 | 0.00 | 0.00 | 0.00 | 35 | 1017.9 |
| 20260831181822 | 100 | 103 | 5.0 | 6.0 | 0.00 | 0.00 | 0.00 | 33 | 1018.0 |
| 20260831181317 | 98 | 110 | 4.0 | 5.0 | 0.00 | 0.00 | 0.00 | 36 | 1018.0 |
| 20260831180812 | 98 | 205 | 5.0 | 6.0 | 0.00 | 0.00 | 0.00 | 35 | 1018.1 |
| 20260831180307 | 98 | 161 | 10.0 | 11.0 | 0.00 | 0.00 | 0.00 | 35 | 1018.3 |
| 20260831175806 | 97 | 179 | 5.0 | 6.0 | 0.00 | 0.00 | 0.00 | 38 | 1018.2 |
| 20260831175306 | 98 | 235 | 3.0 | 3.0 | 0.00 | 0.00 | 0.00 | 36 | 1018.2 |
| 20260831174758 | 97 | 151 | 4.0 | 5.0 | 0.00 | 0.00 | 0.00 | 37 | 1018.5 |
| 20260831174254 | 97 | 262 | 4.0 | 5.0 | 0.00 | 0.00 | 0.00 | 38 | 1018.5 |
| 20260831173753 | 96 | 121 | 4.0 | 5.0 | 0.00 | 0.00 | 0.00 | 39 | 1018.5 |
| 20260831173247 | 96 | 164 | 5.0 | 7.0 | 0.00 | 0.00 | 0.00 | 38 | 1018.5 |
| 20260831172742 | 96 | 235 | 8.0 | 10.0 | 0.00 | 0.00 | 0.00 | 40 | 1018.5 |
| 20260831172232 | 96 | 245 | 6.0 | 6.0 | 0.00 | 0.00 | 0.00 | 39 | 1018.6 |
| 20260831171732 | 96 | 183 | 3.0 | 3.0 | 0.00 | 0.00 | 0.00 | 39 | 1018.8 |
| 20260831171229 | 96 | 212 | 5.0 | 8.0 | 0.00 | 0.00 | 0.00 | 39 | 1018.9 |
| 20260831170725 | 96 | 219 | 5.0 | 6.0 | 0.00 | 0.00 | 0.00 | 40 | 1018.7 |
| 20260831170221 | 95 | 237 | 7.0 | 8.0 | 0.00 | 0.00 | 0.00 | 40 | 1018.8 |
| 20260831165717 | 95 | 203 | 5.0 | 6.0 | 0.00 | 0.00 | 0.00 | 40 | 1018.9 |
| 20260831165214 | 95 | 229 | 7.0 | 8.0 | 0.00 | 0.00 | 0.00 | 40 | 1019.0 |
| 20260831164704 | 95 | 176 | 7.0 | 9.0 | 0.00 | 0.00 | 0.00 | 41 | 1019.0 |
| 20260831164200 | 95 | 186 | 7.0 | 8.0 | 0.00 | 0.00 | 0.00 | 40 | 1018.9 |
| 20260831163655 | 95 | 210 | 6.0 | 7.0 | 0.00 | 0.00 | 0.00 | 42 | 1019.2 |
| 20260831163151 | 94 | 198 | 7.0 | 9.0 | 0.00 | 0.00 | 0.00 | 40 | 1019.1 |
| 20260831162650 | 94 | 218 | 5.0 | 7.0 | 0.00 | 0.00 | 0.00 | 41 | 1019.1 |
| 20260831162148 | 94 | 189 | 9.0 | 9.0 | 0.00 | 0.00 | 0.00 | 42 | 1019.1 |
| 20260831161644 | 94 | 221 | 8.0 | 9.0 | 0.00 | 0.00 | 0.00 | 41 | 1019.0 |
| 20260831161140 | 93 | 238 | 6.0 | 8.0 | 0.00 | 0.00 | 0.00 | 43 | 1019.2 |
| 20260831160639 | 93 | 232 | 7.0 | 8.0 | 0.00 | 0.00 | 0.00 | 43 | 1019.2 |
| 20260831160135 | 93 | 207 | 7.0 | 8.0 | 0.00 | 0.00 | 0.00 | 42 | 1019.1 |
| 20260831155634 | 92 | 219 | 7.0 | 8.0 | 0.00 | 0.00 | 0.00 | 42 | 1019.1 |
| 20260831155130 | 92 | 246 | 8.0 | 10.0 | 0.00 | 0.00 | 0.00 | 42 | 1019.2 |
| 20260831154625 | 92 | 241 | 12.0 | 13.0 | 0.00 | 0.00 | 0.00 | 41 | 1019.1 |
| 20260831154120 | 92 | 241 | 8.0 | 9.0 | 0.00 | 0.00 | 0.00 | 43 | 1019.1 |
| 20260831153619 | 92 | 227 | 7.0 | 8.0 | 0.00 | 0.00 | 0.00 | 43 | 1019.4 |
| 20260831153116 | 91 | 219 | 9.0 | 11.0 | 0.00 | 0.00 | 0.00 | 45 | 1019.2 |
| 20260831152611 | 91 | 175 | 9.0 | 9.0 | 0.00 | 0.00 | 0.00 | 45 | 1019.2 |
| 20260831152107 | 90 | 219 | 9.0 | 11.0 | 0.00 | 0.00 | 0.00 | 45 | 1019.1 |
| 20260831151606 | 90 | 226 | 6.0 | 7.0 | 0.00 | 0.00 | 0.00 | 48 | 1019.0 |
| 20260831151101 | 90 | 223 | 5.0 | 6.0 | 0.00 | 0.00 | 0.00 | 49 | 1019.1 |
| 20260831150556 | 89 | 241 | 6.0 | 7.0 | 0.00 | 0.00 | 0.00 | 50 | 1019.1 |
| 20260831150052 | 89 | 229 | 8.0 | 9.0 | 0.00 | 0.00 | 0.00 | 50 | 1018.9 |
| 20260831145546 | 88 | 234 | 7.0 | 9.0 | 0.00 | 0.00 | 0.00 | 51 | 1019.0 |
| 20260831145043 | 88 | 225 | 9.0 | 10.0 | 0.00 | 0.00 | 0.00 | 51 | 1019.1 |
| 20260831144538 | 88 | 243 | 8.0 | 11.0 | 0.00 | 0.00 | 0.00 | 52 | 1018.9 |
| 20260831144033 | 87 | 217 | 7.0 | 9.0 | 0.00 | 0.00 | 0.00 | 52 | 1018.9 |
| 20260831143527 | 87 | 230 | 7.0 | 8.0 | 0.00 | 0.00 | 0.00 | 56 | 1019.0 |
| 20260831143023 | 87 | 245 | 8.0 | 10.0 | 0.00 | 0.00 | 0.00 | 57 | 1018.9 |
| 20260831142519 | 86 | 236 | 6.0 | 7.0 | 0.00 | 0.00 | 0.00 | 57 | 1018.8 |
| 20260831142014 | 86 | 229 | 7.0 | 8.0 | 0.00 | 0.00 | 0.00 | 57 | 1018.9 |
| 20260831141508 | 85 | 200 | 5.0 | 6.0 | 0.00 | 0.00 | 0.00 | 61 | 1019.0 |
| 20260831141003 | 85 | 247 | 6.0 | 7.0 | 0.00 | 0.00 | 0.00 | 62 | 1019.0 |
| 20260831140502 | 84 | 217 | 5.0 | 7.0 | 0.00 | 0.00 | 0.00 | 64 | 1019.1 |
| 20260831140002 | 83 | 218 | 5.0 | 6.0 | 0.00 | 0.00 | 0.00 | 66 | 1018.9 |
| 20260831135500 | 83 | 208 | 5.0 | 6.0 | 0.00 | 0.00 | 0.00 | 66 | 1019.0 |
| 20260831134955 | 83 | 195 | 3.0 | 3.0 | 0.00 | 0.00 | 0.00 | 68 | 1019.0 |
| 20260831134452 | 82 | 211 | 6.0 | 7.0 | 0.00 | 0.00 | 0.00 | 68 | 1018.9 |
| 20260831133951 | 82 | 169 | 6.0 | 7.0 | 0.00 | 0.00 | 0.00 | 69 | 1018.6 |
| 20260831133445 | 82 | 218 | 5.0 | 7.0 | 0.00 | 0.00 | 0.00 | 69 | 1018.7 |
| 20260831132941 | 81 | 209 | 7.0 | 7.0 | 0.00 | 0.00 | 0.00 | 69 | 1018.7 |
| 20260831132436 | 81 | 195 | 4.0 | 5.0 | 0.00 | 0.00 | 0.00 | 70 | 1019.0 |
| 20260831131936 | 81 | 193 | 4.0 | 5.0 | 0.00 | 0.00 | 0.00 | 71 | 1018.7 |
| 20260831131431 | 81 | 208 | 4.0 | 5.0 | 0.00 | 0.00 | 0.00 | 71 | 1018.5 |
| 20260831130926 | 80 | 209 | 4.0 | 5.0 | 0.00 | 0.00 | 0.00 | 71 | 1018.4 |
| 20260831130422 | 80 | 172 | 3.0 | 3.0 | 0.00 | 0.00 | 0.00 | 71 | 1018.3 |
| 20260831125921 | 79 | 185 | 3.0 | 3.0 | 0.00 | 0.00 | 0.00 | 72 | 1018.5 |
| 20260831125416 | 79 | 188 | 4.0 | 5.0 | 0.00 | 0.00 | 0.00 | 72 | 1018.4 |
| 20260831124912 | 78 | 191 | 3.0 | 5.0 | 0.00 | 0.00 | 0.00 | 72 | 1018.2 |
| 20260831124408 | 78 | 188 | 3.0 | 5.0 | 0.00 | 0.00 | 0.00 | 73 | 1018.2 |
| 20260831123903 | 78 | 156 | 2.0 | 2.0 | 0.00 | 0.00 | 0.00 | 74 | 1017.9 |
| 20260831123401 | 77 | 152 | 1.0 | 1.0 | 0.00 | 0.00 | 0.00 | 74 | 1017.9 |
| 20260831122856 | 77 | 152 | 1.0 | 1.0 | 0.00 | 0.00 | 0.00 | 74 | 1017.7 |
| 20260831122351 | 77 | 151 | 1.0 | 2.0 | 0.00 | 0.00 | 0.00 | 75 | 1017.9 |
| 20260831121846 | 77 | 160 | 1.0 | 1.0 | 0.00 | 0.00 | 0.00 | 75 | 1017.8 |
| 20260831121342 | 76 | 161 | 1.0 | 2.0 | 0.00 | 0.00 | 0.00 | 75 | 1017.8 |
| 20260831120837 | 76 | 159 | 1.0 | 2.0 | 0.00 | 0.00 | 0.00 | 75 | 1017.6 |
| 20260831120332 | 76 | 158 | 1.0 | 1.0 | 0.00 | 0.00 | 0.00 | 75 | 1017.4 |
| 20260831115827 | 76 | 157 | 1.0 | 1.0 | 0.00 | 0.00 | 0.00 | 74 | 1017.4 |
| 20260831115324 | 76 | 142 | 1.0 | 1.0 | 0.00 | 0.00 | 0.00 | 74 | 1017.5 |
| 20260831114823 | 77 | 138 | 0.0 | 1.0 | 0.00 | 0.00 | 0.00 | 73 | 1017.4 |
| 20260831114321 | 77 | 138 | 1.0 | 1.0 | 0.00 | 0.00 | 0.00 | 73 | 1017.6 |
| 20260831113817 | 77 | 139 | 2.0 | 2.0 | 0.00 | 0.00 | 0.00 | 72 | 1017.2 |
| 20260831113312 | 77 | 139 | 2.0 | 2.0 | 0.00 | 0.00 | 0.00 | 72 | 1017.2 |
| 20260831112811 | 77 | 159 | 2.0 | 2.0 | 0.00 | 0.00 | 0.00 | 71 | 1017.3 |
| 20260831112301 | 77 | 166 | 3.0 | 5.0 | 0.00 | 0.00 | 0.00 | 71 | 1017.5 |
| 20260831111756 | 77 | 162 | 2.0 | 2.0 | 0.00 | 0.00 | 0.00 | 71 | 1017.3 |
| 20260831111253 | 77 | 183 | 3.0 | 3.0 | 0.00 | 0.00 | 0.00 | 71 | 1017.0 |
| 20260831110748 | 77 | 169 | 3.0 | 5.0 | 0.00 | 0.00 | 0.00 | 70 | 1017.2 |
| 20260831110243 | 78 | 178 | 3.0 | 3.0 | 0.00 | 0.00 | 0.00 | 70 | 1016.9 |
| 20260831105741 | 78 | 181 | 3.0 | 3.0 | 0.00 | 0.00 | 0.00 | 70 | 1017.0 |
| 20260831105237 | 78 | 181 | 3.0 | 3.0 | 0.00 | 0.00 | 0.00 | 70 | 1017.3 |
| 20260831104732 | 78 | 183 | 3.0 | 3.0 | 0.00 | 0.00 | 0.00 | 69 | 1016.9 |
| 20260831104229 | 78 | 167 | 2.0 | 3.0 | 0.00 | 0.00 | 0.00 | 69 | 1017.1 |
| 20260831103729 | 78 | 187 | 3.0 | 3.0 | 0.00 | 0.00 | 0.00 | 68 | 1016.6 |
| 20260831103224 | 78 | 163 | 2.0 | 2.0 | 0.00 | 0.00 | 0.00 | 68 | 1017.0 |
| 20260831102724 | 79 | 165 | 2.0 | 2.0 | 0.00 | 0.00 | 0.00 | 67 | 1016.7 |
| 20260831102219 | 79 | 165 | 2.0 | 2.0 | 0.00 | 0.00 | 0.00 | 67 | 1016.8 |
| 20260831101714 | 79 | 183 | 3.0 | 3.0 | 0.00 | 0.00 | 0.00 | 66 | 1016.7 |
| 20260831101210 | 79 | 175 | 3.0 | 3.0 | 0.00 | 0.00 | 0.00 | 66 | 1016.9 |
| 20260831100706 | 80 | 180 | 2.0 | 2.0 | 0.00 | 0.00 | 0.00 | 65 | 1016.9 |
| 20260831100202 | 80 | 173 | 2.0 | 2.0 | 0.00 | 0.00 | 0.00 | 65 | 1016.9 |
| 20260831095700 | 80 | 184 | 3.0 | 3.0 | 0.00 | 0.00 | 0.00 | 65 | 1016.9 |
| 20260831095155 | 80 | 168 | 3.0 | 3.0 | 0.00 | 0.00 | 0.00 | 64 | 1016.9 |
| 20260831094650 | 81 | 196 | 4.0 | 6.0 | 0.00 | 0.00 | 0.00 | 63 | 1017.0 |
| 20260831094146 | 81 | 196 | 4.0 | 5.0 | 0.00 | 0.00 | 0.00 | 63 | 1017.0 |
| 20260831093642 | 81 | 198 | 5.0 | 6.0 | 0.00 | 0.00 | 0.00 | 62 | 1016.9 |
| 20260831093138 | 81 | 173 | 3.0 | 3.0 | 0.00 | 0.00 | 0.00 | 62 | 1016.8 |
| 20260831092634 | 81 | 188 | 3.0 | 3.0 | 0.00 | 0.00 | 0.00 | 61 | 1016.9 |
| 20260831092129 | 81 | 169 | 5.0 | 6.0 | 0.00 | 0.00 | 0.00 | 61 | 1016.7 |
| 20260831091628 | 81 | 145 | 4.0 | 5.0 | 0.00 | 0.00 | 0.00 | 61 | 1016.9 |
| 20260831091124 | 81 | 159 | 3.0 | 5.0 | 0.00 | 0.00 | 0.00 | 62 | 1016.8 |
| 20260831090620 | 81 | 165 | 5.0 | 6.0 | 0.00 | 0.00 | 0.00 | 61 | 1016.6 |
| 20260831090116 | 81 | 164 | 5.0 | 6.0 | 0.00 | 0.00 | 0.00 | 62 | 1016.6 |
| 20260831085611 | 81 | 138 | 2.0 | 3.0 | 0.00 | 0.00 | 0.00 | 62 | 1016.7 |
| 20260831085106 | 81 | 166 | 3.0 | 3.0 | 0.00 | 0.00 | 0.00 | 62 | 1016.7 |
| 20260831084602 | 81 | 151 | 3.0 | 3.0 | 0.00 | 0.00 | 0.00 | 62 | 1016.5 |
| 20260831084058 | 81 | 141 | 3.0 | 5.0 | 0.00 | 0.00 | 0.00 | 61 | 1016.5 |
| 20260831083553 | 81 | 135 | 3.0 | 3.0 | 0.00 | 0.00 | 0.00 | 61 | 1016.6 |
| 20260831083047 | 81 | 123 | 3.0 | 5.0 | 0.00 | 0.00 | 0.00 | 61 | 1016.2 |
| 20260831082541 | 81 | 133 | 2.0 | 2.0 | 0.00 | 0.00 | 0.00 | 61 | 1016.2 |
| 20260831082037 | 81 | 132 | 2.0 | 3.0 | 0.00 | 0.00 | 0.00 | 61 | 1016.3 |
| 20260831081533 | 81 | 132 | 1.0 | 1.0 | 0.00 | 0.00 | 0.00 | 60 | 1016.3 |
| 20260831081028 | 81 | 123 | 2.0 | 2.0 | 0.00 | 0.00 | 0.00 | 59 | 1016.6 |
| 20260831080522 | 82 | 121 | 3.0 | 3.0 | 0.00 | 0.00 | 0.00 | 58 | 1016.6 |
| 20260831080018 | 82 | 132 | 2.0 | 2.0 | 0.00 | 0.00 | 0.00 | 58 | 1016.6 |
| 20260831075513 | 82 | 151 | 1.0 | 2.0 | 0.00 | 0.00 | 0.00 | 57 | 1016.3 |
| 20260831075009 | 82 | 147 | 4.0 | 5.0 | 0.00 | 0.00 | 0.00 | 58 | 1016.3 |
| 20260831074503 | 81 | 158 | 4.0 | 5.0 | 0.00 | 0.00 | 0.00 | 58 | 1016.2 |
| 20260831074002 | 81 | 136 | 2.0 | 2.0 | 0.00 | 0.00 | 0.00 | 59 | 1016.1 |
| 20260831073457 | 80 | 138 | 2.0 | 2.0 | 0.00 | 0.00 | 0.00 | 59 | 1016.2 |
| 20260831072955 | 80 | 130 | 2.0 | 2.0 | 0.00 | 0.00 | 0.00 | 60 | 1016.1 |
| 20260831072452 | 80 | 123 | 1.0 | 1.0 | 0.00 | 0.00 | 0.00 | 60 | 1016.0 |
| 20260831071948 | 79 | 122 | 3.0 | 3.0 | 0.00 | 0.00 | 0.00 | 61 | 1016.0 |
| 20260831071446 | 79 | 99 | 2.0 | 2.0 | 0.00 | 0.00 | 0.00 | 62 | 1016.1 |
| 20260831070941 | 79 | 103 | 1.0 | 2.0 | 0.00 | 0.00 | 0.00 | 62 | 1016.1 |
| 20260831070436 | 80 | 99 | 2.0 | 2.0 | 0.00 | 0.00 | 0.00 | 61 | 1016.1 |
| 20260831065935 | 80 | 100 | 2.0 | 2.0 | 0.00 | 0.00 | 0.00 | 60 | 1016.1 |
| 20260831065433 | 80 | 101 | 3.0 | 5.0 | 0.00 | 0.00 | 0.00 | 61 | 1016.2 |
| 20260831064928 | 79 | 102 | 3.0 | 3.0 | 0.00 | 0.00 | 0.00 | 62 | 1016.1 |
| 20260831064423 | 80 | 99 | 3.0 | 3.0 | 0.00 | 0.00 | 0.00 | 63 | 1016.2 |
| 20260831063919 | 80 | 99 | 2.0 | 2.0 | 0.00 | 0.00 | 0.00 | 61 | 1016.5 |
| 20260831063414 | 80 | 116 | 2.0 | 2.0 | 0.00 | 0.00 | 0.00 | 61 | 1016.3 |
| 20260831062913 | 79 | 122 | 2.0 | 2.0 | 0.00 | 0.00 | 0.00 | 62 | 1016.3 |
| 20260831062410 | 79 | 104 | 2.0 | 2.0 | 0.00 | 0.00 | 0.00 | 64 | 1016.3 |
| 20260831061908 | 79 | 97 | 2.0 | 2.0 | 0.00 | 0.00 | 0.00 | 64 | 1016.1 |
| 20260831061407 | 79 | 92 | 3.0 | 3.0 | 0.00 | 0.00 | 0.00 | 64 | 1016.2 |
| 20260831060903 | 77 | 93 | 4.0 | 5.0 | 0.00 | 0.00 | 0.00 | 67 | 1016.3 |
| 20260831060358 | 77 | 110 | 1.0 | 1.0 | 0.00 | 0.00 | 0.00 | 68 | 1016.3 |
| 20260831055857 | 77 | 92 | 0.0 | 0.0 | 0.00 | 0.00 | 0.00 | 69 | 1016.3 |
| 20260831055352 | 78 | 76 | 2.0 | 2.0 | 0.00 | 0.00 | 0.00 | 67 | 1016.1 |
| 20260831054848 | 81 | 85 | 5.0 | 6.0 | 0.00 | 0.00 | 0.00 | 62 | 1016.2 |
| 20260831054343 | 81 | 141 | 0.0 | 0.0 | 0.00 | 0.00 | 0.00 | 55 | 1016.0 |
| 20260831053842 | 81 | 141 | 0.0 | 0.0 | 0.00 | 0.00 | 0.00 | 55 | 1016.1 |
| 20260831053340 | 81 | 141 | 0.0 | 0.0 | 0.00 | 0.00 | 0.00 | 54 | 1016.0 |
| 20260831052840 | 82 | 141 | 0.0 | 0.0 | 0.00 | 0.00 | 0.00 | 53 | 1015.9 |
| 20260831052335 | 82 | 141 | 0.0 | 0.0 | 0.00 | 0.00 | 0.00 | 53 | 1016.0 |
| 20260831051833 | 82 | 141 | 0.0 | 0.0 | 0.00 | 0.00 | 0.00 | 53 | 1015.9 |
| 20260831051332 | 82 | 141 | 0.0 | 0.0 | 0.00 | 0.00 | 0.00 | 52 | 1015.8 |
| 20260831050826 | 82 | 141 | 0.0 | 0.0 | 0.00 | 0.00 | 0.00 | 52 | 1015.8 |
| 20260831050320 | 82 | 141 | 1.0 | 1.0 | 0.00 | 0.00 | 0.00 | 53 | 1015.9 |
| 20260831045814 | 82 | 141 | 1.0 | 1.0 | 0.00 | 0.00 | 0.00 | 52 | 1016.0 |
| 20260831045308 | 81 | 141 | 0.0 | 1.0 | 0.00 | 0.00 | 0.00 | 53 | 1015.9 |
| 20260831044804 | 81 | 141 | 0.0 | 0.0 | 0.00 | 0.00 | 0.00 | 53 | 1015.7 |
| 20260831044258 | 81 | 141 | 0.0 | 0.0 | 0.00 | 0.00 | 0.00 | 52 | 1015.9 |
| 20260831043754 | 81 | 141 | 0.0 | 0.0 | 0.00 | 0.00 | 0.00 | 53 | 1015.7 |
| 20260831043248 | 81 | 141 | 0.0 | 0.0 | 0.00 | 0.00 | 0.00 | 52 | 1015.7 |
| 20260831042743 | 81 | 141 | 0.0 | 0.0 | 0.00 | 0.00 | 0.00 | 51 | 1015.7 |
| 20260831042237 | 81 | 141 | 0.0 | 0.0 | 0.00 | 0.00 | 0.00 | 51 | 1015.8 |
| 20260831041733 | 82 | 141 | 0.0 | 0.0 | 0.00 | 0.00 | 0.00 | 51 | 1015.6 |
| 20260831041232 | 82 | 141 | 0.0 | 0.0 | 0.00 | 0.00 | 0.00 | 51 | 1015.6 |
| 20260831040727 | 82 | 141 | 0.0 | 0.0 | 0.00 | 0.00 | 0.00 | 50 | 1015.8 |
| 20260831040227 | 83 | 141 | 0.0 | 0.0 | 0.00 | 0.00 | 0.00 | 50 | 1015.8 |
| 20260831035725 | 83 | 141 | 0.0 | 0.0 | 0.00 | 0.00 | 0.00 | 49 | 1015.8 |
| 20260831035224 | 84 | 141 | 0.0 | 0.0 | 0.00 | 0.00 | 0.00 | 49 | 1015.6 |
| 20260831034723 | 84 | 141 | 0.0 | 0.0 | 0.00 | 0.00 | 0.00 | 48 | 1015.5 |
| 20260831034220 | 84 | 141 | 0.0 | 0.0 | 0.00 | 0.00 | 0.00 | 47 | 1015.6 |
| 20260831033714 | 85 | 141 | 0.0 | 0.0 | 0.00 | 0.00 | 0.00 | 46 | 1015.4 |
| 20260831033214 | 85 | 141 | 0.0 | 1.0 | 0.00 | 0.00 | 0.00 | 47 | 1015.2 |
| 20260831032709 | 85 | 141 | 1.0 | 1.0 | 0.00 | 0.00 | 0.00 | 46 | 1015.6 |
| 20260831032205 | 85 | 141 | 1.0 | 1.0 | 0.00 | 0.00 | 0.00 | 45 | 1015.6 |
| 20260831031659 | 86 | 141 | 0.0 | 1.0 | 0.00 | 0.00 | 0.00 | 46 | 1015.6 |
| 20260831031159 | 86 | 141 | 1.0 | 1.0 | 0.00 | 0.00 | 0.00 | 46 | 1015.6 |
| 20260831030658 | 86 | 141 | 1.0 | 1.0 | 0.00 | 0.00 | 0.00 | 46 | 1015.5 |
| 20260831030157 | 86 | 141 | 1.0 | 1.0 | 0.00 | 0.00 | 0.00 | 45 | 1015.3 |
| 20260831025655 | 86 | 141 | 1.0 | 1.0 | 0.00 | 0.00 | 0.00 | 45 | 1015.5 |
| 20260831025150 | 86 | 141 | 1.0 | 1.0 | 0.00 | 0.00 | 0.00 | 43 | 1015.4 |
| 20260831024648 | 86 | 141 | 0.0 | 0.0 | 0.00 | 0.00 | 0.00 | 43 | 1015.4 |
| 20260831024145 | 87 | 141 | 0.0 | 1.0 | 0.00 | 0.00 | 0.00 | 43 | 1015.3 |
| 20260831023644 | 87 | 141 | 0.0 | 0.0 | 0.00 | 0.00 | 0.00 | 42 | 1015.3 |
| 20260831023137 | 88 | 141 | 0.0 | 1.0 | 0.00 | 0.00 | 0.00 | 41 | 1015.1 |
| 20260831022633 | 88 | 141 | 1.0 | 1.0 | 0.00 | 0.00 | 0.00 | 41 | 1015.1 |